Regional Weather Roundup
Issued by NWS Green Bay, WI

Home | Current Version | Previous Version | Text Only | Print | Product List | Glossary On
Versions: 1 2 3 4 5 6 7 8 9 10 11 12 13 14 15 16 17 18 19 20 21 22 23 24 25 26 27 28 29 30 31 32 33 34 35 36 37 38 39 40 41 42 43 44 45 46 47 48 49 50
000
ASUS43 KGRB 010711
RWRGRB

NORTH-CENTRAL AND NORTHEAST WISCONSIN REGIONAL WEATHER ROUNDUP
NATIONAL WEATHER SERVICE GREEN BAY WI
200 AM CDT SUN MAY 01 2016

WIZ005-009-010>012-018-019-010800-
NORTH CENTRAL WISCONSIN

CITY           SKY/WX    TMP DP  RH WIND       PRES   REMARKS
IRONWOOD         N/A     34  32  93 NE3       30.16F
MANITOWISH WTR CLOUDY    36  34  93 NE7       30.14S
ARBOR VITAE    PTCLDY    39  35  84 N5        30.13S
EAGLE RIVER    PTCLDY    35  30  85 N6        30.12S
LAND O LAKES   CLOUDY    35  33  92 N7        30.14S
RHINELANDER    PTCLDY    37  31  78 N3        30.12F
PHILLIPS       PTCLDY    37  32  81 NE7       30.13F
ANTIGO         CLOUDY    40  32  72 NE12      30.08F
TOMAHAWK       CLOUDY    39  31  75 NE7       30.12F
MERRILL        CLOUDY    43  31  63 NE6       30.10S
$$

WIZ013-073-010800-
NORTHEAST WISCONSIN

CITY           SKY/WX    TMP DP  RH WIND       PRES   REMARKS
IRON MOUNTAIN  PTCLDY    38  32  79 W6        30.10F
MARINETTE      CLOUDY    43  32  65 N8        30.08S
OCONTO         CLOUDY    43  34  69 N8        30.06F
$$

WIZ017-030-035>037-045-010800-
CENTRAL WISCONSIN

CITY           SKY/WX    TMP DP  RH WIND       PRES   REMARKS
MEDFORD        CLOUDY    42  31  66 NE13      30.08S
WAUSAU         CLOUDY    47  29  49 NE7       30.07S
MOSINEE        CLOUDY    45  30  57 NE9       30.08F
MARSHFIELD     CLOUDY    47  30  51 NE8       30.06S
WISC RAPIDS    CLOUDY    48  30  49 NE9       30.07S
STEVENS POINT  CLOUDY    44  29  57 NE8       30.07S
WAUPACA        LGT RAIN  48  32  54 NE7       30.06F
SHAWANO        CLOUDY    46  33  59 NE12      30.08S
CLINTONVILLE   CLOUDY    45  32  61 NE7       30.07S
WAUTOMA        NOT AVBL
$$

WIZ038-039-048-051-010800-
FOX VALLEY

CITY           SKY/WX    TMP DP  RH WIND       PRES   REMARKS
NWS GREEN BAY  LGT RAIN  44  36  73 NE21      30.07S
APPLETON       CLOUDY    43  32  65 NE12      30.04S
OSHKOSH        CLOUDY    44  37  76 NE16      30.03F
FOND DU LAC    CLOUDY    45  37  73 NE15      30.02F
$$

WIZ022-050-052-010800-
EAST CENTRAL WISCONSIN

CITY           SKY/WX    TMP DP  RH WIND       PRES   REMARKS
EPHRAIM        FAIR      39  36  89 N10       30.07R
STURGEON BAY   CLOUDY    43  34  70 N8        30.09S
MANITOWOC      LGT RAIN  42  37  82 NE10G20   30.04F
SHEBOYGAN      CLOUDY    42  37  82 N13       30.01F
$$

LMZ563-521-522-541>543-010800-
LAKESHORE

STATION/POSITION TIME  TEMP    WIND        PRES    VSBY  WAVE
                       AIR SEA DIR/SP/G                  HT/PER
                 (UTC) (F)     (DEG/KT/KT) (MB)    (MI)  (FT/S)
SHEBOYGAN LKSHOR 0700   42      10/ 19/ 20 1016.9F
KEWAUNEE LKSHORE 0600   42      20/  8/ 10 1017.7R
ALGOMA MARINA    0615           50/ 17/ 24   N/A
NORTHPORT PIER   0600   42     360/ 11/ 14 1018.3F
N MID LAKE BUOY  0650   40 38   30/ 12/ 14 1018.3F         2/ 4
CHAMBERS ISLAND  0640   42     360/ 11/ 14 1019.0S
MENOMINEE LKSHOR 0600   45     360/ 14/ 18 1017.4F
$$




USA.gov is the U.S. government's official web portal to all federal, state and local government web resources and services.